iso_date,epoch_date,Year,Hour,Min,DOY,POS_DOY,Lat,Lon,BP,Ts,Ta,has_bp,has_ts,has_ta,BuoyID,Buoy_Type,Buoy_Owner,Logistics,Hemisphere
2020-07-16T00:09:56Z,1594858196,2020,0,10,198.0069,198.0069,79.59964,4.38776,-999.00,-999.00,-999.0,no,no,no,300534060357380,NOMAD,AWI/USIABP,MOSAiC,North
2020-07-16T00:20:00Z,1594858801,2020,0,20,198.0139,198.0139,79.59868,4.39221,-999.00,-999.00,-999.0,no,no,no,300534060357380,NOMAD,AWI/USIABP,MOSAiC,North
2020-07-16T00:29:57Z,1594859397,2020,0,30,198.0208,198.0208,79.59796,4.39572,-999.00,-999.00,-999.0,no,no,no,300534060357380,NOMAD,AWI/USIABP,MOSAiC,North
2020-07-16T00:40:01Z,1594860002,2020,0,40,198.0278,198.0278,79.59726,4.39953,-999.00,-999.00,-999.0,no,no,no,300534060357380,NOMAD,AWI/USIABP,MOSAiC,North
2020-07-16T00:49:58Z,1594860598,2020,0,50,198.0347,198.0347,79.59661,4.40245,-999.00,-999.00,-999.0,no,no,no,300534060357380,NOMAD,AWI/USIABP,MOSAiC,North
2020-07-16T01:00:02Z,1594861203,2020,1,0,198.0417,198.0417,79.59583,4.40669,-999.00,-999.00,-999.0,no,no,no,300534060357380,NOMAD,AWI/USIABP,MOSAiC,North
2020-07-16T01:09:59Z,1594861799,2020,1,10,198.0486,198.0486,79.59519,4.4098,-999.00,-999.00,-999.0,no,no,no,300534060357380,NOMAD,AWI/USIABP,MOSAiC,North
2020-07-16T01:20:03Z,1594862404,2020,1,20,198.0556,198.0556,79.59423,4.41312,-999.00,-999.00,-999.0,no,no,no,300534060357380,NOMAD,AWI/USIABP,MOSAiC,North
2020-07-16T01:30:00Z,1594863000,2020,1,30,198.0625,198.0625,79.59345,4.41525,-999.00,-999.00,-999.0,no,no,no,300534060357380,NOMAD,AWI/USIABP,MOSAiC,North
2020-07-16T01:39:56Z,1594863596,2020,1,40,198.0694,198.0694,79.59277,4.41781,-999.00,-999.00,-999.0,no,no,no,300534060357380,NOMAD,AWI/USIABP,MOSAiC,North
2020-07-16T01:50:00Z,1594864201,2020,1,50,198.0764,198.0764,79.59215,4.41994,-999.00,-999.00,-999.0,no,no,no,300534060357380,NOMAD,AWI/USIABP,MOSAiC,North
2020-07-16T01:59:57Z,1594864797,2020,2,0,198.0833,198.0833,79.59137,4.42161,-999.00,-999.00,-999.0,no,no,no,300534060357380,NOMAD,AWI/USIABP,MOSAiC,North
2020-07-16T02:10:01Z,1594865402,2020,2,10,198.0903,198.0903,79.59079,4.42369,-999.00,-999.00,-999.0,no,no,no,300534060357380,NOMAD,AWI/USIABP,MOSAiC,North
2020-07-16T02:19:58Z,1594865998,2020,2,20,198.0972,198.0972,79.59002,4.42685,-999.00,-999.00,-999.0,no,no,no,300534060357380,NOMAD,AWI/USIABP,MOSAiC,North
2020-07-16T02:30:02Z,1594866603,2020,2,30,198.1042,198.1042,79.58929,4.43015,-999.00,-999.00,-999.0,no,no,no,300534060357380,NOMAD,AWI/USIABP,MOSAiC,North
2020-07-16T02:39:59Z,1594867199,2020,2,40,198.1111,198.1111,79.58845,4.434,-999.00,-999.00,-999.0,no,no,no,300534060357380,NOMAD,AWI/USIABP,MOSAiC,North
2020-07-16T02:50:03Z,1594867804,2020,2,50,198.1181,198.1181,79.58758,4.4374,-999.00,-999.00,-999.0,no,no,no,300534060357380,NOMAD,AWI/USIABP,MOSAiC,North
2020-07-16T03:00:00Z,1594868400,2020,3,0,198.125,198.125,79.58676,4.43941,-999.00,-999.00,-999.0,no,no,no,300534060357380,NOMAD,AWI/USIABP,MOSAiC,North
2020-07-16T03:09:56Z,1594868996,2020,3,10,198.1319,198.1319,79.58604,4.44277,-999.00,-999.00,-999.0,no,no,no,300534060357380,NOMAD,AWI/USIABP,MOSAiC,North
2020-07-16T03:20:00Z,1594869601,2020,3,20,198.1389,198.1389,79.58523,4.44572,-999.00,-999.00,-999.0,no,no,no,300534060357380,NOMAD,AWI/USIABP,MOSAiC,North
2020-07-16T03:29:57Z,1594870197,2020,3,30,198.1458,198.1458,79.58439,4.44838,-999.00,-999.00,-999.0,no,no,no,300534060357380,NOMAD,AWI/USIABP,MOSAiC,North
2020-07-16T03:40:01Z,1594870802,2020,3,40,198.1528,198.1528,79.58385,4.45107,-999.00,-999.00,-999.0,no,no,no,300534060357380,NOMAD,AWI/USIABP,MOSAiC,North
2020-07-16T03:49:58Z,1594871398,2020,3,50,198.1597,198.1597,79.58321,4.45419,-999.00,-999.00,-999.0,no,no,no,300534060357380,NOMAD,AWI/USIABP,MOSAiC,North
2020-07-16T04:00:02Z,1594872003,2020,4,0,198.1667,198.1667,79.58256,4.45918,-999.00,-999.00,-999.0,no,no,no,300534060357380,NOMAD,AWI/USIABP,MOSAiC,North
2020-07-16T04:09:59Z,1594872599,2020,4,10,198.1736,198.1736,79.58192,4.46142,-999.00,-999.00,-999.0,no,no,no,300534060357380,NOMAD,AWI/USIABP,MOSAiC,North
2020-07-16T04:20:03Z,1594873204,2020,4,20,198.1806,198.1806,79.58142,4.4649,-999.00,-999.00,-999.0,no,no,no,300534060357380,NOMAD,AWI/USIABP,MOSAiC,North
2020-07-16T04:30:00Z,1594873800,2020,4,30,198.1875,198.1875,79.58067,4.46933,-999.00,-999.00,-999.0,no,no,no,300534060357380,NOMAD,AWI/USIABP,MOSAiC,North
2020-07-16T04:39:56Z,1594874396,2020,4,40,198.1944,198.1944,79.5798,4.47208,-999.00,-999.00,-999.0,no,no,no,300534060357380,NOMAD,AWI/USIABP,MOSAiC,North
2020-07-16T04:50:00Z,1594875001,2020,4,50,198.2014,198.2014,79.57911,4.47609,-999.00,-999.00,-999.0,no,no,no,300534060357380,NOMAD,AWI/USIABP,MOSAiC,North
2020-07-16T04:59:57Z,1594875597,2020,5,0,198.2083,198.2083,79.57846,4.48181,-999.00,-999.00,-999.0,no,no,no,300534060357380,NOMAD,AWI/USIABP,MOSAiC,North
2020-07-16T05:10:01Z,1594876202,2020,5,10,198.2153,198.2153,79.57797,4.48691,-999.00,-999.00,-999.0,no,no,no,300534060357380,NOMAD,AWI/USIABP,MOSAiC,North
2020-07-16T05:19:58Z,1594876798,2020,5,20,198.2222,198.2222,79.57718,4.49156,-999.00,-999.00,-999.0,no,no,no,300534060357380,NOMAD,AWI/USIABP,MOSAiC,North
2020-07-16T05:30:02Z,1594877403,2020,5,30,198.2292,198.2292,79.57667,4.49572,-999.00,-999.00,-999.0,no,no,no,300534060357380,NOMAD,AWI/USIABP,MOSAiC,North
2020-07-16T05:39:59Z,1594877999,2020,5,40,198.2361,198.2361,79.57617,4.50033,-999.00,-999.00,-999.0,no,no,no,300534060357380,NOMAD,AWI/USIABP,MOSAiC,North
2020-07-16T05:50:03Z,1594878604,2020,5,50,198.2431,198.2431,79.57553,4.50597,-999.00,-999.00,-999.0,no,no,no,300534060357380,NOMAD,AWI/USIABP,MOSAiC,North
2020-07-16T06:00:00Z,1594879200,2020,6,0,198.25,198.25,79.57512,4.51229,-999.00,-999.00,-999.0,no,no,no,300534060357380,NOMAD,AWI/USIABP,MOSAiC,North
2020-07-16T06:09:56Z,1594879796,2020,6,10,198.2569,198.2569,79.5745,4.51733,-999.00,-999.00,-999.0,no,no,no,300534060357380,NOMAD,AWI/USIABP,MOSAiC,North
2020-07-16T06:20:00Z,1594880401,2020,6,20,198.2639,198.2639,79.574,4.52196,-999.00,-999.00,-999.0,no,no,no,300534060357380,NOMAD,AWI/USIABP,MOSAiC,North
2020-07-16T06:29:57Z,1594880997,2020,6,30,198.2708,198.2708,79.57348,4.52787,-999.00,-999.00,-999.0,no,no,no,300534060357380,NOMAD,AWI/USIABP,MOSAiC,North
2020-07-16T06:40:01Z,1594881602,2020,6,40,198.2778,198.2778,79.57302,4.53266,-999.00,-999.00,-999.0,no,no,no,300534060357380,NOMAD,AWI/USIABP,MOSAiC,North
2020-07-16T06:49:58Z,1594882198,2020,6,50,198.2847,198.2847,79.57243,4.53594,-999.00,-999.00,-999.0,no,no,no,300534060357380,NOMAD,AWI/USIABP,MOSAiC,North
2020-07-16T07:00:02Z,1594882803,2020,7,0,198.2917,198.2917,79.57185,4.53943,-999.00,-999.00,-999.0,no,no,no,300534060357380,NOMAD,AWI/USIABP,MOSAiC,North
2020-07-16T07:09:59Z,1594883399,2020,7,10,198.2986,198.2986,79.57137,4.54405,-999.00,-999.00,-999.0,no,no,no,300534060357380,NOMAD,AWI/USIABP,MOSAiC,North
2020-07-16T07:20:03Z,1594884004,2020,7,20,198.3056,198.3056,79.57102,4.54846,-999.00,-999.00,-999.0,no,no,no,300534060357380,NOMAD,AWI/USIABP,MOSAiC,North
2020-07-16T07:30:00Z,1594884600,2020,7,30,198.3125,198.3125,79.57081,4.55266,-999.00,-999.00,-999.0,no,no,no,300534060357380,NOMAD,AWI/USIABP,MOSAiC,North
2020-07-16T07:39:56Z,1594885196,2020,7,40,198.3194,198.3194,79.57056,4.556,-999.00,-999.00,-999.0,no,no,no,300534060357380,NOMAD,AWI/USIABP,MOSAiC,North
2020-07-16T07:50:00Z,1594885801,2020,7,50,198.3264,198.3264,79.57026,4.56016,-999.00,-999.00,-999.0,no,no,no,300534060357380,NOMAD,AWI/USIABP,MOSAiC,North
2020-07-16T07:59:57Z,1594886397,2020,8,0,198.3333,198.3333,79.56994,4.56408,-999.00,-999.00,-999.0,no,no,no,300534060357380,NOMAD,AWI/USIABP,MOSAiC,North
2020-07-16T08:10:01Z,1594887002,2020,8,10,198.3403,198.3403,79.56974,4.56817,-999.00,-999.00,-999.0,no,no,no,300534060357380,NOMAD,AWI/USIABP,MOSAiC,North
2020-07-16T08:19:58Z,1594887598,2020,8,20,198.3472,198.3472,79.56955,4.57306,-999.00,-999.00,-999.0,no,no,no,300534060357380,NOMAD,AWI/USIABP,MOSAiC,North
2020-07-16T08:30:02Z,1594888203,2020,8,30,198.3542,198.3542,79.56937,4.57711,-999.00,-999.00,-999.0,no,no,no,300534060357380,NOMAD,AWI/USIABP,MOSAiC,North
2020-07-16T08:39:59Z,1594888799,2020,8,40,198.3611,198.3611,79.56931,4.58265,-999.00,-999.00,-999.0,no,no,no,300534060357380,NOMAD,AWI/USIABP,MOSAiC,North
2020-07-16T08:50:03Z,1594889404,2020,8,50,198.3681,198.3681,79.56917,4.58765,-999.00,-999.00,-999.0,no,no,no,300534060357380,NOMAD,AWI/USIABP,MOSAiC,North
2020-07-16T09:00:00Z,1594890000,2020,9,0,198.375,198.375,79.56896,4.59369,-999.00,-999.00,-999.0,no,no,no,300534060357380,NOMAD,AWI/USIABP,MOSAiC,North
2020-07-16T09:09:56Z,1594890596,2020,9,10,198.3819,198.3819,79.56874,4.59934,-999.00,-999.00,-999.0,no,no,no,300534060357380,NOMAD,AWI/USIABP,MOSAiC,North
2020-07-16T09:20:00Z,1594891201,2020,9,20,198.3889,198.3889,79.56847,4.60462,-999.00,-999.00,-999.0,no,no,no,300534060357380,NOMAD,AWI/USIABP,MOSAiC,North
2020-07-16T09:29:57Z,1594891797,2020,9,30,198.3958,198.3958,79.56794,4.60995,-999.00,-999.00,-999.0,no,no,no,300534060357380,NOMAD,AWI/USIABP,MOSAiC,North
2020-07-16T09:40:01Z,1594892402,2020,9,40,198.4028,198.4028,79.56768,4.61317,-999.00,-999.00,-999.0,no,no,no,300534060357380,NOMAD,AWI/USIABP,MOSAiC,North
2020-07-16T09:49:58Z,1594892998,2020,9,50,198.4097,198.4097,79.56744,4.61621,-999.00,-999.00,-999.0,no,no,no,300534060357380,NOMAD,AWI/USIABP,MOSAiC,North
2020-07-16T10:00:02Z,1594893603,2020,10,0,198.4167,198.4167,79.56722,4.61943,-999.00,-999.00,-999.0,no,no,no,300534060357380,NOMAD,AWI/USIABP,MOSAiC,North
2020-07-16T10:09:59Z,1594894199,2020,10,10,198.4236,198.4236,79.56703,4.62293,-999.00,-999.00,-999.0,no,no,no,300534060357380,NOMAD,AWI/USIABP,MOSAiC,North
2020-07-16T10:20:03Z,1594894804,2020,10,20,198.4306,198.4306,79.56682,4.62573,-999.00,-999.00,-999.0,no,no,no,300534060357380,NOMAD,AWI/USIABP,MOSAiC,North
2020-07-16T10:30:00Z,1594895400,2020,10,30,198.4375,198.4375,79.56674,4.62799,-999.00,-999.00,-999.0,no,no,no,300534060357380,NOMAD,AWI/USIABP,MOSAiC,North
2020-07-16T10:39:56Z,1594895996,2020,10,40,198.4444,198.4444,79.56649,4.63071,-999.00,-999.00,-999.0,no,no,no,300534060357380,NOMAD,AWI/USIABP,MOSAiC,North
2020-07-16T10:50:00Z,1594896601,2020,10,50,198.4514,198.4514,79.56621,4.63368,-999.00,-999.00,-999.0,no,no,no,300534060357380,NOMAD,AWI/USIABP,MOSAiC,North
2020-07-16T10:59:57Z,1594897197,2020,11,0,198.4583,198.4583,79.566,4.63597,-999.00,-999.00,-999.0,no,no,no,300534060357380,NOMAD,AWI/USIABP,MOSAiC,North
2020-07-16T11:10:01Z,1594897802,2020,11,10,198.4653,198.4653,79.56597,4.63771,-999.00,-999.00,-999.0,no,no,no,300534060357380,NOMAD,AWI/USIABP,MOSAiC,North
2020-07-16T11:19:58Z,1594898398,2020,11,20,198.4722,198.4722,79.56586,4.64019,-999.00,-999.00,-999.0,no,no,no,300534060357380,NOMAD,AWI/USIABP,MOSAiC,North
2020-07-16T11:30:02Z,1594899003,2020,11,30,198.4792,198.4792,79.5656,4.64242,-999.00,-999.00,-999.0,no,no,no,300534060357380,NOMAD,AWI/USIABP,MOSAiC,North
2020-07-16T11:39:59Z,1594899599,2020,11,40,198.4861,198.4861,79.56552,4.64357,-999.00,-999.00,-999.0,no,no,no,300534060357380,NOMAD,AWI/USIABP,MOSAiC,North
2020-07-16T11:50:03Z,1594900204,2020,11,50,198.4931,198.4931,79.56553,4.64586,-999.00,-999.00,-999.0,no,no,no,300534060357380,NOMAD,AWI/USIABP,MOSAiC,North
2020-07-16T12:00:00Z,1594900800,2020,12,0,198.5,198.5,79.5654,4.6477,-999.00,-999.00,-999.0,no,no,no,300534060357380,NOMAD,AWI/USIABP,MOSAiC,North
2020-07-16T12:09:56Z,1594901396,2020,12,10,198.5069,198.5069,79.56531,4.65027,-999.00,-999.00,-999.0,no,no,no,300534060357380,NOMAD,AWI/USIABP,MOSAiC,North
2020-07-16T12:20:00Z,1594902001,2020,12,20,198.5139,198.5139,79.56525,4.65384,-999.00,-999.00,-999.0,no,no,no,300534060357380,NOMAD,AWI/USIABP,MOSAiC,North
2020-07-16T12:29:57Z,1594902597,2020,12,30,198.5208,198.5208,79.56518,4.65665,-999.00,-999.00,-999.0,no,no,no,300534060357380,NOMAD,AWI/USIABP,MOSAiC,North
2020-07-16T12:40:01Z,1594903202,2020,12,40,198.5278,198.5278,79.56507,4.65895,-999.00,-999.00,-999.0,no,no,no,300534060357380,NOMAD,AWI/USIABP,MOSAiC,North
2020-07-16T12:49:58Z,1594903798,2020,12,50,198.5347,198.5347,79.5648,4.66048,-999.00,-999.00,-999.0,no,no,no,300534060357380,NOMAD,AWI/USIABP,MOSAiC,North
2020-07-16T13:00:02Z,1594904403,2020,13,0,198.5417,198.5417,79.56459,4.66297,-999.00,-999.00,-999.0,no,no,no,300534060357380,NOMAD,AWI/USIABP,MOSAiC,North
2020-07-16T13:09:59Z,1594904999,2020,13,10,198.5486,198.5486,79.56435,4.66501,-999.00,-999.00,-999.0,no,no,no,300534060357380,NOMAD,AWI/USIABP,MOSAiC,North
2020-07-16T13:20:03Z,1594905604,2020,13,20,198.5556,198.5556,79.56422,4.66563,-999.00,-999.00,-999.0,no,no,no,300534060357380,NOMAD,AWI/USIABP,MOSAiC,North
2020-07-16T13:30:00Z,1594906200,2020,13,30,198.5625,198.5625,79.56416,4.66732,-999.00,-999.00,-999.0,no,no,no,300534060357380,NOMAD,AWI/USIABP,MOSAiC,North
2020-07-16T13:39:56Z,1594906796,2020,13,40,198.5694,198.5694,79.56415,4.66825,-999.00,-999.00,-999.0,no,no,no,300534060357380,NOMAD,AWI/USIABP,MOSAiC,North
2020-07-16T13:50:00Z,1594907401,2020,13,50,198.5764,198.5764,79.56425,4.66986,-999.00,-999.00,-999.0,no,no,no,300534060357380,NOMAD,AWI/USIABP,MOSAiC,North
2020-07-16T13:59:57Z,1594907997,2020,14,0,198.5833,198.5833,79.56437,4.67173,-999.00,-999.00,-999.0,no,no,no,300534060357380,NOMAD,AWI/USIABP,MOSAiC,North
2020-07-16T14:10:01Z,1594908602,2020,14,10,198.5903,198.5903,79.56453,4.67312,-999.00,-999.00,-999.0,no,no,no,300534060357380,NOMAD,AWI/USIABP,MOSAiC,North
2020-07-16T14:19:58Z,1594909198,2020,14,20,198.5972,198.5972,79.5649,4.67488,-999.00,-999.00,-999.0,no,no,no,300534060357380,NOMAD,AWI/USIABP,MOSAiC,North
2020-07-16T14:30:02Z,1594909803,2020,14,30,198.6042,198.6042,79.56528,4.67661,-999.00,-999.00,-999.0,no,no,no,300534060357380,NOMAD,AWI/USIABP,MOSAiC,North
2020-07-16T14:39:59Z,1594910399,2020,14,40,198.6111,198.6111,79.5658,4.67818,-999.00,-999.00,-999.0,no,no,no,300534060357380,NOMAD,AWI/USIABP,MOSAiC,North
2020-07-16T14:50:03Z,1594911004,2020,14,50,198.6181,198.6181,79.56639,4.67931,-999.00,-999.00,-999.0,no,no,no,300534060357380,NOMAD,AWI/USIABP,MOSAiC,North
2020-07-16T15:00:00Z,1594911600,2020,15,0,198.625,198.625,79.56696,4.67964,-999.00,-999.00,-999.0,no,no,no,300534060357380,NOMAD,AWI/USIABP,MOSAiC,North
2020-07-16T15:09:56Z,1594912196,2020,15,10,198.6319,198.6319,79.56746,4.68023,-999.00,-999.00,-999.0,no,no,no,300534060357380,NOMAD,AWI/USIABP,MOSAiC,North
2020-07-16T15:20:00Z,1594912801,2020,15,20,198.6389,198.6389,79.56792,4.68037,-999.00,-999.00,-999.0,no,no,no,300534060357380,NOMAD,AWI/USIABP,MOSAiC,North
2020-07-16T15:29:57Z,1594913397,2020,15,30,198.6458,198.6458,79.56843,4.68077,-999.00,-999.00,-999.0,no,no,no,300534060357380,NOMAD,AWI/USIABP,MOSAiC,North
2020-07-16T15:40:01Z,1594914002,2020,15,40,198.6528,198.6528,79.56906,4.67944,-999.00,-999.00,-999.0,no,no,no,300534060357380,NOMAD,AWI/USIABP,MOSAiC,North
2020-07-16T15:49:58Z,1594914598,2020,15,50,198.6597,198.6597,79.56974,4.67967,-999.00,-999.00,-999.0,no,no,no,300534060357380,NOMAD,AWI/USIABP,MOSAiC,North
2020-07-16T16:00:02Z,1594915203,2020,16,0,198.6667,198.6667,79.57045,4.68035,-999.00,-999.00,-999.0,no,no,no,300534060357380,NOMAD,AWI/USIABP,MOSAiC,North
2020-07-16T16:09:59Z,1594915799,2020,16,10,198.6736,198.6736,79.57106,4.68204,-999.00,-999.00,-999.0,no,no,no,300534060357380,NOMAD,AWI/USIABP,MOSAiC,North
2020-07-16T16:20:03Z,1594916404,2020,16,20,198.6806,198.6806,79.57172,4.68242,-999.00,-999.00,-999.0,no,no,no,300534060357380,NOMAD,AWI/USIABP,MOSAiC,North
2020-07-16T16:30:00Z,1594917000,2020,16,30,198.6875,198.6875,79.57238,4.68403,-999.00,-999.00,-999.0,no,no,no,300534060357380,NOMAD,AWI/USIABP,MOSAiC,North
2020-07-16T16:39:56Z,1594917596,2020,16,40,198.6944,198.6944,79.5731,4.68505,-999.00,-999.00,-999.0,no,no,no,300534060357380,NOMAD,AWI/USIABP,MOSAiC,North
2020-07-16T16:50:00Z,1594918201,2020,16,50,198.7014,198.7014,79.5737,4.68526,-999.00,-999.00,-999.0,no,no,no,300534060357380,NOMAD,AWI/USIABP,MOSAiC,North
2020-07-16T16:59:57Z,1594918797,2020,17,0,198.7083,198.7083,79.57466,4.6852,-999.00,-999.00,-999.0,no,no,no,300534060357380,NOMAD,AWI/USIABP,MOSAiC,North
2020-07-16T17:10:01Z,1594919402,2020,17,10,198.7153,198.7153,79.57574,4.68582,-999.00,-999.00,-999.0,no,no,no,300534060357380,NOMAD,AWI/USIABP,MOSAiC,North
2020-07-16T17:19:58Z,1594919998,2020,17,20,198.7222,198.7222,79.57671,4.68791,-999.00,-999.00,-999.0,no,no,no,300534060357380,NOMAD,AWI/USIABP,MOSAiC,North
2020-07-16T17:30:02Z,1594920603,2020,17,30,198.7292,198.7292,79.5776,4.69041,-999.00,-999.00,-999.0,no,no,no,300534060357380,NOMAD,AWI/USIABP,MOSAiC,North
2020-07-16T17:39:59Z,1594921199,2020,17,40,198.7361,198.7361,79.57838,4.69217,-999.00,-999.00,-999.0,no,no,no,300534060357380,NOMAD,AWI/USIABP,MOSAiC,North
2020-07-16T17:50:03Z,1594921804,2020,17,50,198.7431,198.7431,79.57936,4.6939,-999.00,-999.00,-999.0,no,no,no,300534060357380,NOMAD,AWI/USIABP,MOSAiC,North
2020-07-16T18:00:00Z,1594922400,2020,18,0,198.75,198.75,79.58045,4.69633,-999.00,-999.00,-999.0,no,no,no,300534060357380,NOMAD,AWI/USIABP,MOSAiC,North
2020-07-16T18:09:56Z,1594922996,2020,18,10,198.7569,198.7569,79.58144,4.69815,-999.00,-999.00,-999.0,no,no,no,300534060357380,NOMAD,AWI/USIABP,MOSAiC,North
2020-07-16T18:20:00Z,1594923601,2020,18,20,198.7639,198.7639,79.58243,4.70084,-999.00,-999.00,-999.0,no,no,no,300534060357380,NOMAD,AWI/USIABP,MOSAiC,North
2020-07-16T18:29:57Z,1594924197,2020,18,30,198.7708,198.7708,79.58341,4.70451,-999.00,-999.00,-999.0,no,no,no,300534060357380,NOMAD,AWI/USIABP,MOSAiC,North
2020-07-16T18:40:01Z,1594924802,2020,18,40,198.7778,198.7778,79.58432,4.70733,-999.00,-999.00,-999.0,no,no,no,300534060357380,NOMAD,AWI/USIABP,MOSAiC,North
2020-07-16T18:49:58Z,1594925398,2020,18,50,198.7847,198.7847,79.58523,4.70966,-999.00,-999.00,-999.0,no,no,no,300534060357380,NOMAD,AWI/USIABP,MOSAiC,North
2020-07-16T19:00:02Z,1594926003,2020,19,0,198.7917,198.7917,79.586,4.71207,-999.00,-999.00,-999.0,no,no,no,300534060357380,NOMAD,AWI/USIABP,MOSAiC,North
2020-07-16T19:09:59Z,1594926599,2020,19,10,198.7986,198.7986,79.58667,4.71327,-999.00,-999.00,-999.0,no,no,no,300534060357380,NOMAD,AWI/USIABP,MOSAiC,North
2020-07-16T19:20:03Z,1594927204,2020,19,20,198.8056,198.8056,79.58732,4.71368,-999.00,-999.00,-999.0,no,no,no,300534060357380,NOMAD,AWI/USIABP,MOSAiC,North
2020-07-16T19:30:00Z,1594927800,2020,19,30,198.8125,198.8125,79.58802,4.71419,-999.00,-999.00,-999.0,no,no,no,300534060357380,NOMAD,AWI/USIABP,MOSAiC,North
2020-07-16T19:39:56Z,1594928396,2020,19,40,198.8194,198.8194,79.58879,4.71499,-999.00,-999.00,-999.0,no,no,no,300534060357380,NOMAD,AWI/USIABP,MOSAiC,North
2020-07-16T19:50:00Z,1594929001,2020,19,50,198.8264,198.8264,79.58945,4.71704,-999.00,-999.00,-999.0,no,no,no,300534060357380,NOMAD,AWI/USIABP,MOSAiC,North
2020-07-16T19:59:57Z,1594929597,2020,20,0,198.8333,198.8333,79.59019,4.71853,-999.00,-999.00,-999.0,no,no,no,300534060357380,NOMAD,AWI/USIABP,MOSAiC,North
2020-07-16T20:10:01Z,1594930202,2020,20,10,198.8403,198.8403,79.59105,4.71979,-999.00,-999.00,-999.0,no,no,no,300534060357380,NOMAD,AWI/USIABP,MOSAiC,North
2020-07-16T20:19:58Z,1594930798,2020,20,20,198.8472,198.8472,79.59175,4.72184,-999.00,-999.00,-999.0,no,no,no,300534060357380,NOMAD,AWI/USIABP,MOSAiC,North
2020-07-16T20:30:02Z,1594931403,2020,20,30,198.8542,198.8542,79.59246,4.7239,-999.00,-999.00,-999.0,no,no,no,300534060357380,NOMAD,AWI/USIABP,MOSAiC,North
2020-07-16T20:39:59Z,1594931999,2020,20,40,198.8611,198.8611,79.59301,4.72534,-999.00,-999.00,-999.0,no,no,no,300534060357380,NOMAD,AWI/USIABP,MOSAiC,North
2020-07-16T20:50:03Z,1594932604,2020,20,50,198.8681,198.8681,79.59383,4.72674,-999.00,-999.00,-999.0,no,no,no,300534060357380,NOMAD,AWI/USIABP,MOSAiC,North
2020-07-16T21:00:00Z,1594933200,2020,21,0,198.875,198.875,79.59463,4.72802,-999.00,-999.00,-999.0,no,no,no,300534060357380,NOMAD,AWI/USIABP,MOSAiC,North
2020-07-16T21:09:56Z,1594933796,2020,21,10,198.8819,198.8819,79.59537,4.7293,-999.00,-999.00,-999.0,no,no,no,300534060357380,NOMAD,AWI/USIABP,MOSAiC,North
2020-07-16T21:20:00Z,1594934401,2020,21,20,198.8889,198.8889,79.59591,4.73198,-999.00,-999.00,-999.0,no,no,no,300534060357380,NOMAD,AWI/USIABP,MOSAiC,North
2020-07-16T21:29:57Z,1594934997,2020,21,30,198.8958,198.8958,79.59662,4.7335,-999.00,-999.00,-999.0,no,no,no,300534060357380,NOMAD,AWI/USIABP,MOSAiC,North
2020-07-16T21:40:01Z,1594935602,2020,21,40,198.9028,198.9028,79.59714,4.73672,-999.00,-999.00,-999.0,no,no,no,300534060357380,NOMAD,AWI/USIABP,MOSAiC,North
2020-07-16T21:49:58Z,1594936198,2020,21,50,198.9097,198.9097,79.59775,4.73876,-999.00,-999.00,-999.0,no,no,no,300534060357380,NOMAD,AWI/USIABP,MOSAiC,North
2020-07-16T22:00:02Z,1594936803,2020,22,0,198.9167,198.9167,79.59822,4.74054,-999.00,-999.00,-999.0,no,no,no,300534060357380,NOMAD,AWI/USIABP,MOSAiC,North
2020-07-16T22:09:59Z,1594937399,2020,22,10,198.9236,198.9236,79.59872,4.74273,-999.00,-999.00,-999.0,no,no,no,300534060357380,NOMAD,AWI/USIABP,MOSAiC,North
2020-07-16T22:20:03Z,1594938004,2020,22,20,198.9306,198.9306,79.59912,4.74411,-999.00,-999.00,-999.0,no,no,no,300534060357380,NOMAD,AWI/USIABP,MOSAiC,North
2020-07-16T22:30:00Z,1594938600,2020,22,30,198.9375,198.9375,79.59953,4.74531,-999.00,-999.00,-999.0,no,no,no,300534060357380,NOMAD,AWI/USIABP,MOSAiC,North
2020-07-16T22:39:56Z,1594939196,2020,22,40,198.9444,198.9444,79.60001,4.74728,-999.00,-999.00,-999.0,no,no,no,300534060357380,NOMAD,AWI/USIABP,MOSAiC,North
2020-07-16T22:50:00Z,1594939801,2020,22,50,198.9514,198.9514,79.60048,4.74773,-999.00,-999.00,-999.0,no,no,no,300534060357380,NOMAD,AWI/USIABP,MOSAiC,North
2020-07-16T22:59:57Z,1594940397,2020,23,0,198.9583,198.9583,79.60084,4.74833,-999.00,-999.00,-999.0,no,no,no,300534060357380,NOMAD,AWI/USIABP,MOSAiC,North
2020-07-16T23:10:01Z,1594941002,2020,23,10,198.9653,198.9653,79.60103,4.75014,-999.00,-999.00,-999.0,no,no,no,300534060357380,NOMAD,AWI/USIABP,MOSAiC,North
2020-07-16T23:19:58Z,1594941598,2020,23,20,198.9722,198.9722,79.60144,4.75108,-999.00,-999.00,-999.0,no,no,no,300534060357380,NOMAD,AWI/USIABP,MOSAiC,North
2020-07-16T23:30:02Z,1594942203,2020,23,30,198.9792,198.9792,79.60201,4.75215,-999.00,-999.00,-999.0,no,no,no,300534060357380,NOMAD,AWI/USIABP,MOSAiC,North
2020-07-16T23:39:59Z,1594942799,2020,23,40,198.9861,198.9861,79.60256,4.75301,-999.00,-999.00,-999.0,no,no,no,300534060357380,NOMAD,AWI/USIABP,MOSAiC,North
2020-07-16T23:50:03Z,1594943404,2020,23,50,198.9931,198.9931,79.60311,4.75358,-999.00,-999.00,-999.0,no,no,no,300534060357380,NOMAD,AWI/USIABP,MOSAiC,North
2020-07-17T00:00:00Z,1594944000,2020,0,0,199.0,199.0,79.60384,4.75345,-999.00,-999.00,-999.0,no,no,no,300534060357380,NOMAD,AWI/USIABP,MOSAiC,North
2020-07-17T00:09:56Z,1594944596,2020,0,10,199.0069,199.0069,79.6045,4.75283,-999.00,-999.00,-999.0,no,no,no,300534060357380,NOMAD,AWI/USIABP,MOSAiC,North
2020-07-17T00:20:00Z,1594945201,2020,0,20,199.0139,199.0139,79.60489,4.75138,-999.00,-999.00,-999.0,no,no,no,300534060357380,NOMAD,AWI/USIABP,MOSAiC,North
2020-07-17T00:29:57Z,1594945797,2020,0,30,199.0208,199.0208,79.60534,4.7517,-999.00,-999.00,-999.0,no,no,no,300534060357380,NOMAD,AWI/USIABP,MOSAiC,North
2020-07-17T00:40:01Z,1594946402,2020,0,40,199.0278,199.0278,79.60582,4.75184,-999.00,-999.00,-999.0,no,no,no,300534060357380,NOMAD,AWI/USIABP,MOSAiC,North
2020-07-17T00:49:58Z,1594946998,2020,0,50,199.0347,199.0347,79.60635,4.75153,-999.00,-999.00,-999.0,no,no,no,300534060357380,NOMAD,AWI/USIABP,MOSAiC,North
2020-07-17T01:00:02Z,1594947603,2020,1,0,199.0417,199.0417,79.60698,4.7504,-999.00,-999.00,-999.0,no,no,no,300534060357380,NOMAD,AWI/USIABP,MOSAiC,North
2020-07-17T01:09:59Z,1594948199,2020,1,10,199.0486,199.0486,79.60763,4.74885,-999.00,-999.00,-999.0,no,no,no,300534060357380,NOMAD,AWI/USIABP,MOSAiC,North
2020-07-17T01:20:03Z,1594948804,2020,1,20,199.0556,199.0556,79.60818,4.74793,-999.00,-999.00,-999.0,no,no,no,300534060357380,NOMAD,AWI/USIABP,MOSAiC,North
2020-07-17T01:30:00Z,1594949400,2020,1,30,199.0625,199.0625,79.60867,4.74668,-999.00,-999.00,-999.0,no,no,no,300534060357380,NOMAD,AWI/USIABP,MOSAiC,North